Weather History for KVIH - April, 2012

Change the Weather History Date:

Tuesday, April 3, 2012

  Actual Average Record
Temperature  
Mean Temperature 66 °F 51 °F  
Max Temperature 77 °F 63 °F 89 °F (2011)
Min Temperature 54 °F 40 °F 21 °F (1975)
Degree Days  
Heating Degree Days 0 14  
Month to date heating degree days 0 43  
Since 1 July heating degree days 3474 4447  
Cooling Degree Days 1 0  
Month to date cooling degree days 20 0  
Year to date cooling degree days 70 4  
Growing Degree Days 16 (Base 50)    
Moisture  
Dew Point 58 °F    
Average Humidity 72    
Maximum Humidity 93    
Minimum Humidity 50    
Precipitation  
Precipitation T in 0.12 in 1.73 in (2008)
Month to date precipitation T 0.37  
Year to date precipitation 6.92 7.92  
Sea Level Pressure  
Sea Level Pressure 29.82 in    
Wind  
Wind Speed 7 mph (SW)    
Max Wind Speed 15 mph    
Max Gust Speed 20 mph    
Visibility 10 miles    
Events      
T = Trace of Precipitation, MM = Missing Value Source: NWS Daily Summary

Daily Weather History Graph

Daily Weather History Graph

Search for Another Location

Airport or City:

Trip Planner

Search our weather history database for the weather conditions in past years. The results will help you decide how hot, cold, wet, or windy it might be!

Date:

Astronomy

Apr. 03, 2012 Rise Set
Actual Time 6:48 AM CDT 7:32 PM CDT
Civil Twilight 6:21 AM CDT 7:59 PM CDT
Nautical Twilight 5:50 AM CDT 8:30 PM CDT
Astronomical Twilight 5:17 AM CDT 9:03 PM CDT
Moon 4:19 PM CDT (4/3) 4:33 AM CDT (4/3)
Length of Visible Light 13h 37m
Length of Day
12h 44m
Waxing Gibbous, 87% of the Moon is Illuminated
Apr 3
Waxing Gibbous
Apr 6
Full
Apr 13
Last Quarter
Apr 21
New
Apr 29
First Quarter

Hourly Weather History & Observations

Time (CDT) Temp. Dew Point Humidity Pressure Visibility Wind Dir Wind Speed Gust Speed Precip Events Conditions
12:53 AM 68.0 °F 57.9 °F 70% 29.76 in 10.0 mi South 8.1 mph - N/A   Clear
1:53 AM 66.0 °F 59.0 °F 78% 29.75 in 10.0 mi South 9.2 mph - N/A   Clear
2:53 AM 64.9 °F 59.0 °F 81% 29.75 in 10.0 mi South 10.4 mph - N/A   Clear
3:53 AM 64.0 °F 59.0 °F 84% 29.79 in 10.0 mi SSW 10.4 mph - N/A   Clear
4:53 AM 64.0 °F 59.0 °F 84% 29.82 in 10.0 mi SW 8.1 mph - N/A   Clear
5:53 AM 60.1 °F 57.9 °F 93% 29.82 in 9.0 mi SSW 5.8 mph - N/A   Clear
6:53 AM 55.0 °F 54.0 °F 96% 29.84 in 7.0 mi SSW 6.9 mph - N/A   Clear
7:53 AM 64.0 °F 60.1 °F 87% 29.86 in 10.0 mi SSW 5.8 mph - N/A   Clear
8:53 AM 66.9 °F 59.0 °F 76% 29.86 in 10.0 mi SSW 6.9 mph - N/A   Clear
9:53 AM 66.0 °F 57.0 °F 73% 29.87 in 10.0 mi SSW 10.4 mph - N/A   Partly Cloudy
10:53 AM 70.0 °F 57.9 °F 65% 29.87 in 10.0 mi South 8.1 mph - N/A   Partly Cloudy
11:53 AM 73.0 °F 57.9 °F 59% 29.85 in 10.0 mi South 6.9 mph - N/A   Overcast
12:53 PM 72.0 °F 57.0 °F 59% 29.84 in 10.0 mi SSW 8.1 mph - N/A   Overcast
1:53 PM 73.9 °F 57.9 °F 57% 29.81 in 10.0 mi South 10.4 mph - N/A   Mostly Cloudy
2:53 PM 77.0 °F 57.9 °F 52% 29.80 in 10.0 mi South 9.2 mph - N/A   Mostly Cloudy
3:53 PM 72.0 °F 57.0 °F 59% 29.80 in 10.0 mi SW 9.2 mph - N/A   Overcast
4:53 PM 71.1 °F 60.1 °F 68% 29.79 in 10.0 mi NNW 5.8 mph - 0.00 in   Overcast
5:53 PM 71.1 °F 61.0 °F 70% 29.79 in 10.0 mi North 4.6 mph - N/A   Mostly Cloudy
6:53 PM 68.0 °F 59.0 °F 73% 29.81 in 10.0 mi NW 9.2 mph - N/A   Mostly Cloudy
7:53 PM 66.0 °F 60.1 °F 81% 29.82 in 10.0 mi NW 3.5 mph - N/A   Mostly Cloudy
8:53 PM 64.9 °F 60.1 °F 84% 29.81 in 10.0 mi WNW 3.5 mph - N/A   Mostly Cloudy
9:53 PM 60.1 °F 57.9 °F 93% 29.83 in 10.0 mi Calm Calm - N/A   Clear
10:53 PM 60.1 °F 57.9 °F 93% 29.83 in 9.0 mi West 3.5 mph - N/A   Clear
11:53 PM 60.1 °F 57.9 °F 93% 29.82 in 8.0 mi Calm Calm - N/A   Clear